Location: Eaton Estates
(41.3089°N, 82.0057°W)
Time: 11:04:04
(UTC+00:00)

Cosmos 1814 Rocket - Pass Details

Date: 17 June 2021
Orbit: 745 x 787 km, 74.1° (Epoch: 26 July)

Event Time Altitude Azimuth Distance (km) Brightness Sun altitude
Exits shadow 07:43:22 33° 204° (SSW) 1,254 4.5 -18.2°
Maximum altitude 07:45:45 83° 289° (WNW) 770 3.9 -18.0°
Drops below altitude 10° 07:50:56 10° 18° (NNE) 2,285 7.6 -17.4°
Sets 07:53:18 0° 19° (NNE) 3,209 8.7 -17.2°
